sat.trackr.live / text

‹ back to catalog

STARLINK-5830

NORAD 57065 · 2023-088T

PAYLOAD ACTIVE UNKNOWN

§ Identity

Operator
Country
US
Launch date
2023-06-22
Launch site
AFWTR
Launch vehicle
Mass (kg)
RCS (m²)

Purposes: comms

External: N2YO · Heavens-Above · Gunter

§ Orbital elements

Epoch: 2026-09-20T21:09:23.708160Z

Period
94.27 min
Inclination
42.9975°
Eccentricity
0.0000941
Mean motion
15.27579526 rev/d
Perigee alt
482.4 km
Apogee alt
483.7 km
Semi-major
6,861.2 km
B*
-9.8732e-5
RAAN
91.7624°
Arg perigee
278.9554°
Mean anomaly
81.1191°
Rev number
17,916

§ Raw data

STARLINK-58301 57065U 23088T   26263.88152440 -.00002978  00000+0 -98732-4 0  99952 57065  42.9975  91.7624 0000941 278.9554  81.1191 15.27579526179168

JSON: /api/v1/satellites/57065 · /tle

For live sub-satellite position, see the globe view (requires WebGL).

§ Visibility from observer

Set your observer location to see the next 7 days of passes ≥ 10°. The values pass through the URL so the page stays shareable.

No JS? Fill the form by hand. The geolocation button needs JavaScript.